| time (UTC) | temp C | wind direction | speed KPH | gust KPH | rain 1hr cm | rain 24hr cm | rain mn cm | humidity % | barometer mb |
| 20260504235304 | 22 | 31 | 6.4 | 11.3 | 0.00 | 0.00 | 0.00 | 32 | 1005.8 |
| 20260504234759 | 22 | 339 | 1.6 | 3.2 | 0.00 | 0.00 | 0.00 | 32 | 1005.5 |
| 20260504234257 | 22 | 46 | 6.4 | 9.7 | 0.00 | 0.00 | 0.00 | 33 | 1005.5 |
| 20260504233753 | 22 | 26 | 4.8 | 9.7 | 0.00 | 0.00 | 0.00 | 32 | 1005.5 |
| 20260504233249 | 23 | 46 | 3.2 | 4.8 | 0.00 | 0.00 | 0.00 | 33 | 1005.3 |
| 20260504232746 | 23 | 33 | 4.8 | 4.8 | 0.00 | 0.00 | 0.00 | 33 | 1005.6 |
| 20260504232243 | 23 | 45 | 3.2 | 4.8 | 0.00 | 0.00 | 0.00 | 32 | 1005.4 |
| 20260504231740 | 24 | 34 | 3.2 | 4.8 | 0.00 | 0.00 | 0.00 | 33 | 1005.0 |
| 20260504231236 | 24 | 27 | 4.8 | 4.8 | 0.00 | 0.00 | 0.00 | 32 | 1004.6 |
| 20260504230732 | 24 | 20 | 3.2 | 4.8 | 0.00 | 0.00 | 0.00 | 34 | 1004.7 |
| 20260504230231 | 24 | 41 | 4.8 | 4.8 | 0.00 | 0.00 | 0.00 | 33 | 1004.7 |
| 20260504225730 | 24 | 32 | 4.8 | 8.0 | 0.00 | 0.00 | 0.00 | 32 | 1004.6 |
| 20260504225225 | 24 | 37 | 1.6 | 3.2 | 0.00 | 0.00 | 0.00 | 33 | 1004.5 |
| 20260504224722 | 25 | 13 | 6.4 | 8.0 | 0.00 | 0.00 | 0.00 | 36 | 1004.4 |
| 20260504224220 | 25 | 16 | 4.8 | 8.0 | 0.00 | 0.00 | 0.00 | 35 | 1004.3 |
| 20260504223716 | 26 | 38 | 4.8 | 8.0 | 0.00 | 0.00 | 0.00 | 33 | 1004.1 |
| 20260504223211 | 25 | 333 | 8.0 | 11.3 | 0.00 | 0.00 | 0.00 | 35 | 1004.1 |
| 20260504222709 | 26 | 17 | 6.4 | 9.7 | 0.00 | 0.00 | 0.00 | 34 | 1003.9 |
| 20260504222205 | 26 | 52 | 3.2 | 3.2 | 0.00 | 0.00 | 0.00 | 34 | 1003.8 |
| 20260504221703 | 27 | 37 | 8.0 | 12.9 | 0.00 | 0.00 | 0.00 | 34 | 1003.8 |
| 20260504221200 | 26 | 37 | 1.6 | 3.2 | 0.00 | 0.00 | 0.00 | 32 | 1003.5 |
| 20260504220656 | 27 | 29 | 4.8 | 8.0 | 0.00 | 0.00 | 0.00 | 33 | 1003.6 |
| 20260504220154 | 27 | 34 | 4.8 | 8.0 | 0.00 | 0.00 | 0.00 | 32 | 1003.6 |
| 20260504215650 | 27 | 19 | 1.6 | 3.2 | 0.00 | 0.00 | 0.00 | 32 | 1003.4 |
| 20260504215148 | 27 | 38 | 6.4 | 12.9 | 0.00 | 0.00 | 0.00 | 33 | 1003.5 |
| 20260504214643 | 27 | 325 | 16.1 | 20.9 | 0.00 | 0.00 | 0.00 | 31 | 1003.2 |
| 20260504214140 | 27 | 31 | 6.4 | 9.7 | 0.00 | 0.00 | 0.00 | 33 | 1003.5 |
| 20260504213637 | 27 | 306 | 8.0 | 9.7 | 0.00 | 0.00 | 0.00 | 33 | 1003.4 |
| 20260504213133 | 26 | 47 | 6.4 | 8.0 | 0.00 | 0.00 | 0.00 | 34 | 1003.4 |
| 20260504212630 | 27 | 2 | 6.4 | 8.0 | 0.00 | 0.00 | 0.00 | 33 | 1003.4 |
| 20260504212127 | 27 | 302 | 8.0 | 9.7 | 0.00 | 0.00 | 0.00 | 33 | 1003.3 |
| 20260504211624 | 27 | 317 | 8.0 | 9.7 | 0.00 | 0.00 | 0.00 | 31 | 1003.2 |
| 20260504211120 | 27 | 7 | 4.8 | 9.7 | 0.00 | 0.00 | 0.00 | 33 | 1003.2 |
| 20260504210619 | 27 | 24 | 3.2 | 3.2 | 0.00 | 0.00 | 0.00 | 32 | 1003.2 |
| 20260504210114 | 28 | 327 | 4.8 | 4.8 | 0.00 | 0.00 | 0.00 | 36 | 1003.1 |
| 20260504205612 | 28 | 326 | 6.4 | 8.0 | 0.00 | 0.00 | 0.00 | 30 | 1003.1 |
| 20260504205110 | 28 | 17 | 4.8 | 4.8 | 0.00 | 0.00 | 0.00 | 31 | 1003.0 |
| 20260504204608 | 28 | 8 | 6.4 | 8.0 | 0.00 | 0.00 | 0.00 | 31 | 1003.2 |
| 20260504204106 | 28 | 59 | 9.7 | 14.5 | 0.00 | 0.00 | 0.00 | 31 | 1003.2 |
| 20260504203605 | 28 | 23 | 8.0 | 9.7 | 0.00 | 0.00 | 0.00 | 31 | 1003.2 |
| 20260504203102 | 28 | 12 | 4.8 | 9.7 | 0.00 | 0.00 | 0.00 | 30 | 1003.2 |
| 20260504202557 | 28 | 36 | 4.8 | 8.0 | 0.00 | 0.00 | 0.00 | 32 | 1003.0 |
| 20260504202054 | 27 | 308 | 8.0 | 9.7 | 0.00 | 0.00 | 0.00 | 30 | 1003.2 |
| 20260504201551 | 27 | 289 | 8.0 | 14.5 | 0.00 | 0.00 | 0.00 | 24 | 1002.9 |
| 20260504201049 | 29 | 316 | 11.3 | 12.9 | 0.00 | 0.00 | 0.00 | 24 | 1003.1 |
| 20260504200545 | 29 | 42 | 4.8 | 8.0 | 0.00 | 0.00 | 0.00 | 28 | 1003.2 |
| 20260504200042 | 28 | 294 | 8.0 | 9.7 | 0.00 | 0.00 | 0.00 | 26 | 1003.1 |
| 20260504195538 | 28 | 2 | 4.8 | 8.0 | 0.00 | 0.00 | 0.00 | 26 | 1003.1 |
| 20260504195034 | 28 | 4 | 9.7 | 11.3 | 0.00 | 0.00 | 0.00 | 27 | 1003.1 |
| 20260504194531 | 28 | 339 | 3.2 | 3.2 | 0.00 | 0.00 | 0.00 | 30 | 1003.2 |
| 20260504194026 | 28 | 65 | 8.0 | 9.7 | 0.00 | 0.00 | 0.00 | 29 | 1003.1 |
| 20260504193523 | 28 | 15 | 4.8 | 8.0 | 0.00 | 0.00 | 0.00 | 28 | 1003.1 |
| 20260504193022 | 27 | 38 | 3.2 | 3.2 | 0.00 | 0.00 | 0.00 | 28 | 1003.0 |
| 20260504192520 | 27 | 45 | 1.6 | 1.6 | 0.00 | 0.00 | 0.00 | 30 | 1003.0 |
| 20260504192018 | 28 | 36 | 3.2 | 3.2 | 0.00 | 0.00 | 0.00 | 33 | 1003.3 |
| 20260504191515 | 28 | 51 | 8.0 | 9.7 | 0.00 | 0.00 | 0.00 | 30 | 1003.2 |
| 20260504191011 | 28 | 39 | 1.6 | 3.2 | 0.00 | 0.00 | 0.00 | 26 | 1003.1 |
| 20260504190507 | 28 | 24 | 4.8 | 4.8 | 0.00 | 0.00 | 0.00 | 26 | 1003.0 |
| 20260504190004 | 27 | 44 | 1.6 | 3.2 | 0.00 | 0.00 | 0.00 | 28 | 1002.9 |
| 20260504185501 | 28 | 18 | 1.6 | 1.6 | 0.00 | 0.00 | 0.00 | 27 | 1002.9 |
| 20260504184957 | 28 | 35 | 0.0 | 1.6 | 0.00 | 0.00 | 0.00 | 29 | 1003.1 |
| 20260504184453 | 28 | 35 | 0.0 | 1.6 | 0.00 | 0.00 | 0.00 | 28 | 1003.2 |
| 20260504183948 | 28 | 287 | 3.2 | 3.2 | 0.00 | 0.00 | 0.00 | 24 | 1003.1 |
| 20260504183446 | 27 | 331 | 1.6 | 3.2 | 0.00 | 0.00 | 0.00 | 24 | 1003.5 |
| 20260504182944 | 28 | 335 | 3.2 | 3.2 | 0.00 | 0.00 | 0.00 | 24 | 1003.4 |
| 20260504182440 | 27 | 271 | 3.2 | 4.8 | 0.00 | 0.00 | 0.00 | 24 | 1003.5 |
| 20260504181938 | 27 | 17 | 1.6 | 3.2 | 0.00 | 0.00 | 0.00 | 25 | 1003.5 |
| 20260504181435 | 27 | 349 | 6.4 | 8.0 | 0.00 | 0.00 | 0.00 | 27 | 1003.5 |
| 20260504180933 | 27 | 16 | 8.0 | 9.7 | 0.00 | 0.00 | 0.00 | 25 | 1003.5 |
| 20260504180432 | 27 | 39 | 4.8 | 8.0 | 0.00 | 0.00 | 0.00 | 30 | 1003.3 |
| 20260504175930 | 27 | 39 | 1.6 | 3.2 | 0.00 | 0.00 | 0.00 | 27 | 1003.6 |
| 20260504175426 | 27 | 321 | 3.2 | 4.8 | 0.00 | 0.00 | 0.00 | 31 | 1003.6 |
| 20260504174924 | 26 | 315 | 9.7 | 11.3 | 0.00 | 0.00 | 0.00 | 28 | 1003.9 |
| 20260504174421 | 26 | 289 | 4.8 | 8.0 | 0.00 | 0.00 | 0.00 | 31 | 1003.6 |
| 20260504173919 | 26 | 33 | 6.4 | 9.7 | 0.00 | 0.00 | 0.00 | 29 | 1003.7 |
| 20260504173415 | 26 | 32 | 3.2 | 4.8 | 0.00 | 0.00 | 0.00 | 27 | 1003.7 |
| 20260504172913 | 26 | 338 | 6.4 | 8.0 | 0.00 | 0.00 | 0.00 | 30 | 1003.6 |
| 20260504172409 | 26 | 42 | 6.4 | 8.0 | 0.00 | 0.00 | 0.00 | 29 | 1003.7 |
| 20260504171905 | 26 | 46 | 0.0 | 1.6 | 0.00 | 0.00 | 0.00 | 34 | 1003.8 |
| 20260504171402 | 26 | 49 | 3.2 | 4.8 | 0.00 | 0.00 | 0.00 | 31 | 1003.7 |
| 20260504170859 | 26 | 335 | 4.8 | 4.8 | 0.00 | 0.00 | 0.00 | 31 | 1003.7 |
| 20260504170355 | 26 | 349 | 4.8 | 4.8 | 0.00 | 0.00 | 0.00 | 32 | 1003.6 |
| 20260504160315 | 23 | 31 | 3.2 | 3.2 | 0.00 | 0.00 | 0.00 | 46 | 1003.8 |
| 20260504150739 | 20 | 0 | 4.8 | 4.8 | 0.00 | 0.00 | 0.00 | 48 | 1003.7 |
| 20260504150236 | 20 | 292 | 3.2 | 4.8 | 0.00 | 0.00 | 0.00 | 50 | 1003.7 |
| 20260504141205 | 16 | 53 | 1.6 | 1.6 | 0.00 | 0.00 | 0.00 | 63 | 1003.7 |
| 20260504140702 | 16 | 345 | 3.2 | 3.2 | 0.00 | 0.00 | 0.00 | 62 | 1004.2 |
| 20260504140158 | 15 | 30 | 0.0 | 0.0 | 0.00 | 0.00 | 0.00 | 62 | 1003.8 |
| 20260504130626 | 12 | 46 | 0.0 | 0.0 | 0.00 | 0.00 | 0.00 | 73 | 1003.9 |
| 20260504130123 | 12 | 45 | 0.0 | 1.6 | 0.00 | 0.00 | 0.00 | 75 | 1003.8 |
| 20260504110514 | 8 | 60 | 0.0 | 0.0 | 0.00 | 0.00 | 0.00 | 88 | 1003.9 |
| 20260504100431 | 8 | 65 | 0.0 | 1.6 | 0.00 | 0.00 | 0.00 | 86 | 1004.0 |
| 20260504081823 | 10 | 72 | 0.0 | 0.0 | 0.00 | 0.00 | 0.00 | 87 | 1005.5 |
| 20260504081321 | 10 | 72 | 1.6 | 1.6 | 0.00 | 0.00 | 0.00 | 86 | 1005.6 |
| 20260504080816 | 10 | 71 | 0.0 | 1.6 | 0.00 | 0.00 | 0.00 | 86 | 1005.9 |
| 20260504080313 | 10 | 71 | 0.0 | 0.0 | 0.00 | 0.00 | 0.00 | 87 | 1005.9 |
| 20260504070240 | 10 | 72 | 0.0 | 0.0 | 0.00 | 0.00 | 0.00 | 88 | 1007.2 |
| 20260504060201 | 10 | 67 | 0.0 | 0.0 | 0.00 | 0.00 | 0.00 | 87 | 1008.2 |
| 20260504050629 | 11 | 67 | 0.0 | 1.6 | 0.00 | 0.00 | 0.00 | 81 | 1008.6 |
| 20260504050126 | 12 | 67 | 0.0 | 1.6 | 0.00 | 0.00 | 0.00 | 79 | 1008.7 |
| 20260504045623 | 12 | 66 | 0.0 | 0.0 | 0.00 | 0.00 | 0.00 | 80 | 1008.9 |
| 20260504045118 | 12 | 66 | 0.0 | 0.0 | 0.00 | 0.00 | 0.00 | 80 | 1008.9 |
| 20260504044616 | 12 | 73 | 0.0 | 1.6 | 0.00 | 0.00 | 0.00 | 80 | 1009.0 |
| 20260504044112 | 12 | 73 | 0.0 | 0.0 | 0.00 | 0.00 | 0.00 | 79 | 1009.1 |
| 20260504043610 | 12 | 73 | 0.0 | 0.0 | 0.00 | 0.00 | 0.00 | 80 | 1009.3 |
| 20260504043107 | 12 | 73 | 0.0 | 0.0 | 0.00 | 0.00 | 0.00 | 79 | 1009.3 |
| 20260504042604 | 12 | 73 | 0.0 | 0.0 | 0.00 | 0.00 | 0.00 | 77 | 1009.5 |
| 20260504042101 | 12 | 73 | 0.0 | 0.0 | 0.00 | 0.00 | 0.00 | 80 | 1009.6 |
| 20260504041556 | 12 | 73 | 0.0 | 0.0 | 0.00 | 0.00 | 0.00 | 79 | 1009.6 |
| 20260504041053 | 12 | 73 | 0.0 | 0.0 | 0.00 | 0.00 | 0.00 | 79 | 1009.6 |
| 20260504040550 | 12 | 73 | 0.0 | 0.0 | 0.00 | 0.00 | 0.00 | 78 | 1009.4 |
| 20260504040047 | 12 | 73 | 0.0 | 0.0 | 0.00 | 0.00 | 0.00 | 75 | 1009.5 |
| 20260504035544 | 12 | 73 | 0.0 | 0.0 | 0.00 | 0.00 | 0.00 | 74 | 1009.4 |
| 20260504035040 | 12 | 73 | 0.0 | 0.0 | 0.00 | 0.00 | 0.00 | 74 | 1009.7 |
| 20260504034538 | 13 | 73 | 0.0 | 0.0 | 0.00 | 0.00 | 0.00 | 76 | 1009.5 |
| 20260504034035 | 13 | 73 | 0.0 | 0.0 | 0.00 | 0.00 | 0.00 | 77 | 1009.7 |
| 20260504033533 | 13 | 73 | 0.0 | 0.0 | 0.00 | 0.00 | 0.00 | 74 | 1009.6 |
| 20260504033030 | 13 | 73 | 0.0 | 0.0 | 0.00 | 0.00 | 0.00 | 75 | 1009.7 |
| 20260504032527 | 13 | 73 | 0.0 | 0.0 | 0.00 | 0.00 | 0.00 | 76 | 1009.7 |
| 20260504032023 | 13 | 73 | 0.0 | 0.0 | 0.00 | 0.00 | 0.00 | 74 | 1009.8 |
| 20260504031521 | 13 | 73 | 0.0 | 1.6 | 0.00 | 0.00 | 0.00 | 74 | 1009.9 |
| 20260504031016 | 13 | 73 | 0.0 | 0.0 | 0.00 | 0.00 | 0.00 | 74 | 1009.8 |
| 20260504030514 | 13 | 73 | 0.0 | 0.0 | 0.00 | 0.00 | 0.00 | 74 | 1010.0 |
| 20260504030010 | 13 | 73 | 0.0 | 0.0 | 0.00 | 0.00 | 0.00 | 68 | 1010.0 |
| 20260504025507 | 14 | 73 | 0.0 | 0.0 | 0.00 | 0.00 | 0.00 | 67 | 1010.0 |
| 20260504025004 | 14 | 73 | 0.0 | 0.0 | 0.00 | 0.00 | 0.00 | 68 | 1010.0 |
| 20260504024501 | 14 | 73 | 0.0 | 0.0 | 0.00 | 0.00 | 0.00 | 67 | 1010.3 |
| 20260504023958 | 14 | 73 | 0.0 | 0.0 | 0.00 | 0.00 | 0.00 | 69 | 1010.2 |
| 20260504023455 | 15 | 73 | 0.0 | 0.0 | 0.00 | 0.00 | 0.00 | 69 | 1010.2 |
| 20260504022950 | 15 | 73 | 0.0 | 0.0 | 0.00 | 0.00 | 0.00 | 66 | 1010.0 |
| 20260504022446 | 15 | 36 | 0.0 | 0.0 | 0.00 | 0.00 | 0.00 | 66 | 1010.1 |
| 20260504021943 | 15 | 36 | 0.0 | 0.0 | 0.00 | 0.00 | 0.00 | 63 | 1010.2 |
| 20260504021441 | 15 | 36 | 0.0 | 0.0 | 0.00 | 0.00 | 0.00 | 68 | 1010.0 |
| 20260504020938 | 15 | 36 | 0.0 | 0.0 | 0.00 | 0.00 | 0.00 | 63 | 1010.0 |
| 20260504020434 | 16 | 36 | 0.0 | 0.0 | 0.00 | 0.00 | 0.00 | 66 | 1009.9 |
| 20260504015931 | 16 | 36 | 0.0 | 0.0 | 0.00 | 0.00 | 0.00 | 64 | 1010.1 |
| 20260504015427 | 16 | 36 | 0.0 | 0.0 | 0.00 | 0.00 | 0.00 | 57 | 1009.9 |
| 20260504014923 | 16 | 35 | 0.0 | 0.0 | 0.00 | 0.00 | 0.00 | 56 | 1009.7 |
| 20260504014419 | 16 | 35 | 0.0 | 0.0 | 0.00 | 0.00 | 0.00 | 56 | 1009.9 |
| 20260504013916 | 17 | 35 | 0.0 | 0.0 | 0.00 | 0.00 | 0.00 | 59 | 1009.8 |
| 20260504013415 | 17 | 35 | 0.0 | 0.0 | 0.00 | 0.00 | 0.00 | 59 | 1010.1 |
| 20260504012910 | 18 | 35 | 0.0 | 0.0 | 0.00 | 0.00 | 0.00 | 60 | 1009.8 |
| 20260504012409 | 18 | 35 | 0.0 | 0.0 | 0.00 | 0.00 | 0.00 | 50 | 1010.3 |
| 20260504011905 | 18 | 35 | 0.0 | 0.0 | 0.00 | 0.00 | 0.00 | 50 | 1010.2 |
| 20260504011403 | 19 | 35 | 0.0 | 0.0 | 0.00 | 0.00 | 0.00 | 50 | 1010.2 |
| 20260504010858 | 19 | 35 | 0.0 | 0.0 | 0.00 | 0.00 | 0.00 | 52 | 1010.0 |
| 20260504010354 | 20 | 35 | 0.0 | 0.0 | 0.00 | 0.00 | 0.00 | 47 | 1010.2 |
| 20260504005851 | 20 | 35 | 0.0 | 0.0 | 0.00 | 0.00 | 0.00 | 46 | 1010.3 |
| 20260504005347 | 20 | 35 | 0.0 | 0.0 | 0.00 | 0.00 | 0.00 | 46 | 1010.4 |
| 20260504004845 | 20 | 33 | 0.0 | 0.0 | 0.00 | 0.00 | 0.00 | 51 | 1010.2 |
| 20260504004343 | 20 | 33 | 0.0 | 0.0 | 0.00 | 0.00 | 0.00 | 49 | 1010.4 |
| 20260504003839 | 20 | 33 | 0.0 | 0.0 | 0.00 | 0.00 | 0.00 | 53 | 1010.6 |
| 20260504003336 | 21 | 33 | 0.0 | 0.0 | 0.00 | 0.00 | 0.00 | 43 | 1010.6 |
| 20260504002832 | 21 | 33 | 0.0 | 0.0 | 0.00 | 0.00 | 0.00 | 47 | 1010.5 |
| 20260504002329 | 22 | 33 | 0.0 | 0.0 | 0.00 | 0.00 | 0.00 | 39 | 1010.6 |
| 20260504001827 | 22 | 33 | 0.0 | 0.0 | 0.00 | 0.00 | 0.00 | 37 | 1010.5 |
| 20260504001324 | 22 | 33 | 0.0 | 0.0 | 0.00 | 0.00 | 0.00 | 34 | 1010.6 |
| 20260504000821 | 22 | 27 | 0.0 | 0.0 | 0.00 | 0.00 | 0.00 | 34 | 1010.6 |
| 20260504000318 | 22 | 27 | 0.0 | 1.6 | 0.00 | 0.00 | 0.00 | 38 | 1010.6 |
| 20260503235816 | 22 | 27 | 0.0 | 0.0 | 0.00 | 0.00 | 0.00 | 37 | 1010.7 |